Regional Weather Roundup
Issued by NWS

Home | Current Version | Previous Version | Graphics & Text | Print | Product List | Glossary On
Versions: 1 2 3 4 5 6 7 8 9 10 11 12 13 14 15 16 17 18 19 20 21 22 23 24 25 26 27 28 29 30 31 32 33 34 35 36 37 38 39 40 41 42 43 44 45 46 47 48 49 50
000
ASUS43 KMPX 181110
RWRMN
WEATHER ROUNDUP FOR MINNESOTA
NATIONAL WEATHER SERVICE TWIN CITIES/CHANHASSEN MN
600 AM CDT WED OCT 18 2017


NOTE: "FAIR" INDICATES FEW OR NO CLOUDS BELOW 12,000 FEET WITH NO
SIGNIFICANT WEATHER AND/OR OBSTRUCTIONS TO VISIBILITY. N/A MEANS
CURRENT SKY AND/OR WEATHER CONDITIONS ARE NOT AVAILABLE.

MNZ060>063-068>070-181200-
   Twin Cities Metro

CITY           SKY/WX    TMP DP  RH WIND       PRES   REMARKS
TWIN CITIES    CLEAR     50  45  83 SE7       29.86R
ST PAUL        CLEAR     48  45  89 SE7       29.87S
CRYSTAL        CLEAR     50  42  74 S8        29.83S
BLAINE         CLEAR     52  46  82 S8        29.83F
LAKEVILLE      CLEAR     48  45  87 S6        29.87R
EDEN PRAIRIE   CLEAR     52  44  74 S10       29.84S
SOUTH ST PAUL  CLEAR     47  43  85 CALM      29.86S
LAKE ELMO      FAIR      50  45  81 S8        29.87S
$$
MNZ001>005-007-008-013>017-022>024-027-028-181200-
   Northwest Minnesota

CITY           SKY/WX    TMP DP  RH WIND       PRES   REMARKS
BEMIDJI        CLOUDY    53  38  58 S9G16     29.61F
HALLOCK        CLOUDY    52  36  54 S9        29.50R
ROSEAU         CLOUDY    59  43  55 SW17      29.50R
WARROAD        CLOUDY    59  43  55 SW12G20   29.50R
THIEF RVR FALL CLOUDY    55  39  54 SW16      29.59R
CROOKSTON      CLOUDY    54  39  58 SW16      29.60R
FOSSTON        CLEAR     55  37  50 S18       29.59S
DETROIT LAKES  CLEAR     55  41  58 S12       29.65S
MOORHEAD       CLEAR     48  39  71 S14       29.61S
PARK RAPIDS    CLOUDY    50  40  68 S8        29.66F
MAHNOMEN       FAIR      54  40  59 S14       29.58F
$$
MNZ006-009>011-018-025>026-181200-
   North Central Minnesota

CITY           SKY/WX    TMP DP  RH WIND       PRES   REMARKS
BAUDETTE       CLEAR     56  40  55 S14       29.49F
FLAG ISLAND    CLOUDY    57  43  58 SW17      29.44R
INTL FALLS     CLEAR     57  37  47 S12       29.55F
WASKISH        CLEAR     59  39  47 S10G17    29.56S
BIG FORK       CLEAR     54  39  58 S8        29.64S
LONGVILLE      CLEAR     55  39  54 S8        29.67F
GRAND RAPIDS   CLOUDY    52  40  63 S12       29.70F
CRANE LAKE     CLOUDY    54  37  54 S6        29.65S
ORR            CLOUDY    54  36  50 S9        29.62F
COOK           CLOUDY    55  39  54 S7        29.67F
WALKER         FAIR      55  40  57 SW12G20   29.64F
$$
MNZ012-019>021-037-181200-
   Northeast Minnesota

CITY           SKY/WX    TMP DP  RH WIND       PRES   REMARKS
DULUTH         CLEAR     53  43  68 SW15      29.76F
ELY            CLEAR     59  36  41 SW12G18   29.69F
HIBBING        CLOUDY    47  38  71 S5        29.70F
EVELETH        CLOUDY    51  42  70 SW7       29.72F
DULUTH HARBOR  CLEAR     52  46  82 S7        29.77F
TWO HARBORS    CLEAR     46  41  81 CALM      29.75F
SILVER BAY     CLEAR     34  34 100 CALM      29.75F
GRAND MARAIS     N/A     43  42  97 N3        29.76F
G MARAIS ARPRT CLEAR     48  39  71 S6        29.76F
$$
MNZ029>031-032-039>041-046>048-054>057-064-181200-
   West Central Minnesota

CITY           SKY/WX    TMP DP  RH WIND       PRES   REMARKS
FERGUS FALLS   CLEAR     50  43  76 S12       29.67F
WHEATON        CLEAR     54  39  58 S7        29.69R
MORRIS         CLEAR     46  43  87 SE9       29.70F
ALEXANDRIA     CLEAR     56  43  61 S15       29.72F
ELBOW LAKE     FAIR      49  43  80 S13       29.69S
WADENA         CLEAR     52  41  66 S7        29.68S
GLENWOOD       CLEAR     55  43  62 S16       29.73F
APPLETON       CLEAR     55  43  62 S7        29.71F
BENSON         CLEAR     52  43  71 SW9       29.73F
ORTONVILLE     CLOUDY    54  43  66 N9        29.68F
MADISON        CLEAR     61  43  51 S10       29.71F
WILLMAR        FAIR      54  45  71 S8        29.77F
$$
MNZ033>034-036-042>043-049>051-058-059-181200-
   Central Minnesota

CITY           SKY/WX    TMP DP  RH WIND       PRES   REMARKS
ST CLOUD       CLOUDY    47  44  90 S8        29.77F
SAUK CENTRE    FAIR      51  42  72 S7        29.74S
PAYNESVILLE    PTCLDY    52  44  74 S12       29.77F
AITKIN         CLEAR     52  41  66 S8        29.70F
PINE RIVER     CLEAR     45  39  81 SE5       29.73F
BRAINERD       CLEAR     53  42  66 S14       29.72F
STAPLES        CLEAR     54  41  62 S10       29.68F
LONG PRAIRIE   FAIR      52  41  66 SE12      29.72F
LITTLE FALLS   CLEAR     52  36  54 S8        29.74F
LITCHFIELD     CLEAR     52  46  82 S5        29.79F
BUFFALO        CLEAR     51  44  76 S6        29.81F
MAPLE LAKE     CLOUDY    49  46  87 S7        29.80F
HUTCHINSON     CLOUDY    46  44  91 SE3       29.82F
$$
MNZ037-044-045-052-053-181200-
   East Central Minnesota

CITY           SKY/WX    TMP DP  RH WIND       PRES   REMARKS
PRINCETON      CLEAR     48  45  87 SE7       29.79F
MORA           CLEAR     45  41  87 SE3       29.80F
CAMBRIDGE      CLEAR     52  43  71 SE8       29.81F
RUSH CITY      PTCLDY    48  44  84 S8        29.82F
MOOSE LAKE     CLEAR     46  41  81 CALM      29.75F
HINCKLEY       FAIR      46  45  93 S7        29.80F
CLOQUET        CLEAR     52  41  66 S8        29.76F
MCGREGOR       CLEAR     52  41  66 S8        29.73F
$$
MNZ071>073-080-081-089-090-097-098-181200-
   Southwest Minnesota

CITY           SKY/WX    TMP DP  RH WIND       PRES   REMARKS
MONTEVIDEO     CLEAR     52  45  76 SW7       29.73F
GRANITE FALLS  CLEAR     52  46  78 S9        29.77F
CANBY          PTCLDY    61  42  50 SW14G22   29.73F
MARSHALL       CLEAR     56  44  64 S15       29.76F
REDWOOD FALLS  CLEAR     47  41  80 S9        29.78F
OLIVIA         CLEAR     50  43  76 S9        29.77F
PIPESTONE      CLEAR     50  45  81 S9        29.79F
WORTHINGTON    CLEAR     53  45  74 S12       29.84F
JACKSON        CLEAR     46  43  87 S10       29.86S
TRACY          CLEAR     57  46  66 S13G21    29.78F
SLAYTON        CLEAR     51  44  74 S8        29.81F
$$
MNZ065>067-074>077-082>085-091>093-181200-
   South Central Minnesota

CITY           SKY/WX    TMP DP  RH WIND       PRES   REMARKS
MANKATO        CLEAR     48  44  86 S9        29.86F
NEW ULM          N/A     46  43  87 S8        29.83S
ST JAMES       CLEAR     46  43  87 S10       29.86R
FAIRMONT       CLEAR     45  43  93 S10       29.87S
GLENCOE        CLEAR     49  45  83 S5        29.82F
FARIBAULT      CLEAR     48  45  87 S7        29.89R
OWATONNA       CLEAR     50  45  81 S14       29.89R
WASECA         CLEAR     50  43  76 S6        29.90R
ALBERT LEA     CLEAR     52  46  82 S6        29.92R
$$
MNZ078>079-086>088-094>096-181200-
   Southeast Minnesota

CITY           SKY/WX    TMP DP  RH WIND       PRES   REMARKS
ROCHESTER      CLEAR     48  44  86 S13       29.93S
RED WING       CLEAR     52  43  71 SE8       29.88F
STANTON        CLEAR     51  45  79 S7        29.86S
DODGE CENTER   CLEAR     48  43  81 S12       29.90S
WINONA         CLEAR     54  45  71 SE5       29.94S
AUSTIN         CLEAR     46  43  87 S7        29.93R
PRESTON        CLEAR     48  43  81 S10       29.95S
$$
ABBREVIATIONS USED IN REMARKS
   TC - TEMPERATURES IN CELSIUS
  WCI - WIND CHILL INDEX
   HX - HEAT INDEX
  VSB - VISIBILITY
$$



USA.gov is the U.S. government's official web portal to all federal, state and local government web resources and services.